Fort Pierce, FL

8:20 PM EDT on September 29, 2016 (GMT -0400)
Saint Lucie County International

Weather History for KFPR - July, 2013

Change the Weather History Date:

Thursday, July 11, 2013

  Actual Average Record
Temperature  
Mean Temperature 79 °F -  
Max Temperature 88 °F 91 °F 99 °F (1980)
Min Temperature 72 °F 72 °F 68 °F (1993)
Cooling Degree Days 14    
Growing Degree Days 29 (Base 50)    
Moisture  
Dew Point 72 °F    
Average Humidity 84    
Maximum Humidity 93    
Minimum Humidity 61    
Precipitation  
Precipitation 0.72 in - - ()
Sea Level Pressure  
Sea Level Pressure 30.01 in    
Wind  
Wind Speed 4 mph (SSE)    
Max Wind Speed 23 mph    
Max Gust Speed 17 mph    
Visibility 9 miles    
Events Rain , Thunderstorm    
Averages and records for this station are not official NWS values.
T = Trace of Precipitation, MM = Missing Value Source: NWS Daily Summary

Daily Weather History Graph

Daily Weather History Graph

Search for Another Location

Airport or City:

Trip Planner

Search our weather history database for the weather conditions in past years. The results will help you decide how hot, cold, wet, or windy it might be!

Date:

Astronomy

Jul. 11, 2013 Rise Set
Actual Time 6:34 AM EDT 8:19 PM EDT
Civil Twilight 6:08 AM EDT 8:45 PM EDT
Nautical Twilight 5:36 AM EDT 9:17 PM EDT
Astronomical Twilight 5:03 AM EDT 9:50 PM EDT
Moon 9:30 AM EDT (7/11) 10:23 PM EDT (7/11)
Length of Visible Light 14h 37m
Length of Day
13h 45m
Waxing Crescent, 10% of the Moon is Illuminated
Jul 11
Waxing Crescent
Jul 15
First Quarter
Jul 22
Full
Jul 29
Last Quarter
Aug 6
New

Hourly Weather History & Observations

Time (EDT) Temp. Heat Index Dew Point Humidity Pressure Visibility Wind Dir Wind Speed Gust Speed Precip Events Conditions
12:53 AM 77.0 °F - 72.0 °F 84% 30.06 in 10.0 mi South 3.5 mph - N/A   Clear
1:53 AM 77.0 °F - 73.0 °F 88% 30.04 in 10.0 mi Calm Calm - N/A   Clear
2:53 AM 77.0 °F - 72.0 °F 84% 30.02 in 10.0 mi Calm Calm - N/A   Clear
3:53 AM 73.9 °F - 71.1 °F 91% 30.01 in 10.0 mi South 3.5 mph - N/A   Clear
4:53 AM 75.9 °F - 72.0 °F 87% 30.01 in 10.0 mi Calm Calm - N/A   Clear
5:53 AM 72.0 °F - 70.0 °F 93% 30.02 in 10.0 mi Calm Calm - N/A   Clear
6:53 AM 75.0 °F - 72.0 °F 90% 30.02 in 10.0 mi Calm Calm - N/A   Clear
7:53 AM 79.0 °F - 73.9 °F 84% 30.02 in 10.0 mi Calm Calm - N/A   Clear
8:53 AM 82.0 °F 87.4 °F 73.0 °F 74% 30.03 in 10.0 mi SW 4.6 mph - N/A   Clear
9:53 AM 84.0 °F 90.2 °F 73.0 °F 69% 30.02 in 10.0 mi WSW 6.9 mph - N/A   Clear
10:53 AM 86.0 °F 93.0 °F 73.0 °F 65% 30.03 in 10.0 mi SSW 6.9 mph - N/A   Scattered Clouds
11:53 AM 86.0 °F 91.5 °F 71.1 °F 61% 30.02 in 10.0 mi Calm Calm - N/A   Mostly Cloudy
12:53 PM 82.9 °F 90.2 °F 75.0 °F 77% 30.02 in 10.0 mi ESE 11.5 mph - 0.00 in Rain Light Rain
1:08 PM 80.6 °F 86.2 °F 75.2 °F 84% 30.02 in 1.5 mi ESE 23.0 mph - 0.16 in Rain Heavy Rain
1:17 PM 78.8 °F - 73.4 °F 83% 30.01 in 3.0 mi East 8.1 mph - 0.37 in Rain Heavy Rain
1:37 PM 78.8 °F - 75.2 °F 89% 30.01 in 3.0 mi Variable 4.6 mph - 0.61 in Rain Heavy Rain
1:46 PM 78.8 °F - 73.4 °F 83% 30.01 in 3.0 mi NE 4.6 mph - 0.62 in Rain Light Rain
1:53 PM 79.0 °F - 75.0 °F 88% 30.01 in 10.0 mi North 4.6 mph - 0.62 in Rain Light Rain
2:53 PM 81.0 °F 85.8 °F 73.0 °F 77% 29.99 in 10.0 mi SE 10.4 mph - 0.00 in Rain , Thunderstorm Light Thunderstorms and Rain
3:06 PM 80.6 °F 84.6 °F 71.6 °F 74% 29.99 in 10.0 mi SE 11.5 mph - 0.00 in   Mostly Cloudy
3:53 PM 75.9 °F - 72.0 °F 87% 29.99 in 5.0 mi SSE 5.8 mph - 0.08 in   Mostly Cloudy
4:53 PM 73.9 °F - 69.1 °F 85% 29.98 in 8.0 mi South 9.2 mph 17.3 mph 0.01 in Rain Light Rain
5:53 PM 73.9 °F - 70.0 °F 87% 29.98 in 10.0 mi WSW 5.8 mph - 0.00 in   Scattered Clouds
6:53 PM 75.9 °F - 72.0 °F 87% 29.96 in 10.0 mi Calm Calm - 0.01 in   Scattered Clouds
7:53 PM 75.9 °F - 72.0 °F 87% 29.97 in 10.0 mi Calm Calm - N/A   Clear
8:53 PM 73.9 °F - 72.0 °F 93% 29.97 in 10.0 mi Calm Calm - N/A   Clear
9:53 PM 73.0 °F - 71.1 °F 93% 29.98 in 10.0 mi Calm Calm - N/A   Clear
10:53 PM 73.0 °F - 71.1 °F 93% 29.98 in 10.0 mi Calm Calm - N/A   Clear
11:53 PM 73.0 °F - 70.0 °F 90% 29.98 in 10.0 mi Calm Calm - N/A   Clear